This demonstration page uses our WeatherBlox Daily Observations layout. Learn more.

Left ArrowRight Arrow

30.21309, -93.2044

Hourly Observations for May 29, 2015

Temp ( °F °C ) Dew Point ( °F °C ) Humidity (%) Winds ( mph kmh ) Pressure ( in mb ) Visibility ( mi km ) Precip ( " mm )
12:15 am 00:15 Clear with Mist and Fog 74 23.5 74 23.1 98 98 SE 6 9 30.03 1017 3 4 0.00 0.00
12:35 am 00:35 Clear 74 23.5 73 23 97 97 SSE 6 9 30.03 1017 7 11 0.00 0.00
12:55 am 00:55 Clear 74 23.3 73 22.8 97 97 SSE 6 9 30.03 1017 7 11 0.00 0.00
1:15 am 01:15 Clear with Mist and Fog 74 23.5 73 23 97 97 SSE 3 6 30.00 1016 3 5 0.00 0.00
1:35 am 01:35 Clear 74 23.4 73 23 98 98 S 3 6 30.03 1017 7 11 0.00 0.00
1:55 am 01:55 Clear with Mist and Fog 73 22.9 73 22.5 98 98 SSE 3 6 30.00 1016 4 6 0.00 0.00
2:15 am 02:15 Clear with Mist and Fog 73 23 73 22.7 98 98 SSE 5 7 30.00 1016 5 8 0.00 0.00
2:35 am 02:35 Clear 73 22.9 73 22.6 98 98 SSE 3 6 30.03 1017 7 11 0.00 0.00
2:55 am 02:55 Clear 73 22.7 72 22.4 98 98 S 5 7 30.00 1016 7 11 0.00 0.00
3:15 am 03:15 Clear 73 23 73 22.6 98 98 SSE 6 9 30.00 1016 7 11 0.00 0.00
3:35 am 03:35 Clear 73 22.8 73 22.5 98 98 SSE 3 6 30.00 1016 7 11 0.00 0.00
3:55 am 03:55 Clear 73 22.7 72 22.4 98 98 S 3 6 30.00 1016 7 11 0.00 0.00
4:15 am 04:15 Clear 74 23.2 73 22.7 97 97 S 6 9 30.00 1016 10 16 0.00 0.00
4:35 am 04:35 Clear 74 23.4 73 22.7 96 96 Calm 30.00 1016 10 16 0.00 0.00
4:55 am 04:55 Clear with Mist and Fog 72 22.3 72 22 98 98 SSE 3 6 30.00 1016 5 8 0.00 0.00
5:15 am 05:15 Clear with Mist and Fog 72 22.1 72 22 99 99 SE 5 7 30.00 1016 3 4 0.00 0.00
6:00 am 06:00 Partly Cloudy 73 23 73 23 100 100 Calm 30.00 1016 10 16 0.00 0.00
6:50 am 06:50 Partly Cloudy 73 23 73 23 100 100 Calm 30.03 1017 10 16 0.00 0.00
7:45 am 07:45 Partly Cloudy 77 25 73 23 89 89 SSE 6 9 30.03 1017 10 16 0.00 0.00
8:50 am 08:50 Partly Cloudy 82 28 73 23 74 74 SSE 6 9 30.03 1017 10 16 0.00 0.00
9:50 am 09:50 Mostly Cloudy 84 29 73 23 70 70 S 12 19 30.03 1017 10 16 0.00 0.00
10:50 am 10:50 Mostly Cloudy 84 29 73 23 70 70 SSW 12 19 30.06 1018 10 16 0.00 0.00
11:50 am 11:50 Mostly Cloudy 84 29 73 23 70 70 S 14 22 30.03 1017 10 16 0.00 0.00
12:50 pm 12:50 Mostly Cloudy 86 30 73 23 66 66 S 10 17 30.03 1017 10 16 0.00 0.00
1:50 pm 13:50 Partly Cloudy 86 30 73 23 66 66 S 15 24 30.00 1016 10 16 0.00 0.00
2:50 pm 14:50 Partly Cloudy 88 31 70 21 55 55 S 16 26 30.00 1016 10 16 0.00 0.00
9:50 pm 21:50 Partly Cloudy 75 24 73 23 94 94 S 5 7 30.03 1017 10 16 0.00 0.00
10:15 pm 22:15 Partly Cloudy 75 24 73 23 94 94 SE 5 7 30.03 1017 10 16 0.00 0.00
10:35 pm 22:35 Mostly Cloudy 76 24.4 74 23.1 92 92 SSE 5 7 30.03 1017 10 16 0.00 0.00
10:55 pm 22:55 Partly Cloudy 75 24.1 73 23 94 94 SSE 7 11 30.03 1017 10 16 0.00 0.00
11:15 pm 23:15 Clear 75 23.7 73 22.7 94 94 SSE 6 9 30.03 1017 10 16 0.00 0.00
11:35 pm 23:35 Partly Cloudy 74 23.5 73 22.7 95 95 SSE 5 7 30.03 1017 10 16 0.00 0.00
11:55 pm 23:55 Partly Cloudy 74 23.3 73 22.5 95 95 SSE 3 6 30.03 1017 10 16 0.00 0.00

Powered by AerisWeather